| time (UTC) | temp C | wind direction | speed KPH | gust KPH | rain 1hr cm | rain 24hr cm | rain mn cm | humidity % | barometer mb |
| 20260505125002 | 21 | 0 | 0.0 | 0.0 | 0.00 | 0.15 | 0.15 | 97 | 1016.6 |
| 20260505124503 | 21 | 0 | 0.0 | 0.0 | 0.00 | 0.15 | 0.15 | 97 | 1016.7 |
| 20260505124002 | 21 | 0 | 0.0 | 0.0 | 0.00 | 0.15 | 0.15 | 97 | 1016.5 |
| 20260505123502 | 21 | 0 | 0.0 | 0.0 | 0.00 | 0.15 | 0.15 | 97 | 1016.5 |
| 20260505123024 | 21 | 0 | 0.0 | 0.0 | 0.00 | 0.15 | 0.15 | 96 | 1016.7 |
| 20260505122523 | 21 | 0 | 0.0 | 0.0 | 0.00 | 0.15 | 0.15 | 96 | 1016.6 |
| 20260505122002 | 21 | 0 | 0.0 | 0.0 | 0.00 | 0.15 | 0.15 | 96 | 1016.4 |
| 20260505121502 | 21 | 0 | 0.0 | 0.0 | 0.00 | 0.15 | 0.15 | 95 | 1016.5 |
| 20260505121023 | 21 | 0 | 0.0 | 0.0 | 0.00 | 0.15 | 0.15 | 96 | 1016.6 |
| 20260505120502 | 21 | 0 | 0.0 | 0.0 | 0.00 | 0.15 | 0.15 | 96 | 1016.6 |
| 20260505120023 | 21 | 0 | 0.0 | 0.0 | 0.00 | 0.15 | 0.15 | 95 | 1016.4 |
| 20260505115502 | 21 | 0 | 0.0 | 0.0 | 0.00 | 0.15 | 0.15 | 95 | 1016.6 |
| 20260505115002 | 21 | 0 | 0.0 | 0.0 | 0.00 | 0.15 | 0.15 | 96 | 1016.7 |
| 20260505114502 | 21 | 0 | 0.0 | 0.0 | 0.00 | 0.15 | 0.15 | 95 | 1016.7 |
| 20260505114023 | 22 | 0 | 0.0 | 0.0 | 0.00 | 0.15 | 0.15 | 94 | 1016.6 |
| 20260505113502 | 22 | 0 | 0.0 | 0.0 | 0.00 | 0.15 | 0.15 | 94 | 1016.5 |
| 20260505113003 | 22 | 0 | 0.0 | 0.0 | 0.00 | 0.15 | 0.15 | 94 | 1016.5 |
| 20260505112502 | 22 | 0 | 0.0 | 0.0 | 0.00 | 0.15 | 0.15 | 94 | 1016.7 |
| 20260505112023 | 22 | 0 | 0.0 | 0.0 | 0.00 | 0.15 | 0.15 | 94 | 1016.7 |
| 20260505111523 | 22 | 0 | 0.0 | 0.0 | 0.00 | 0.15 | 0.15 | 94 | 1016.7 |
| 20260505111002 | 22 | 0 | 0.0 | 0.0 | 0.00 | 0.15 | 0.15 | 93 | 1016.8 |
| 20260505110502 | 22 | 0 | 0.0 | 0.0 | 0.00 | 0.15 | 0.15 | 93 | 1016.5 |
| 20260505102002 | 22 | 0 | 0.0 | 0.0 | 0.00 | 0.15 | 0.15 | 92 | 1016.8 |
| 20260505101503 | 22 | 0 | 0.0 | 0.0 | 0.00 | 0.15 | 0.15 | 91 | 1016.8 |
| 20260505101002 | 22 | 0 | 0.0 | 0.0 | 0.00 | 0.15 | 0.15 | 91 | 1016.5 |
| 20260505100502 | 22 | 0 | 0.0 | 0.0 | 0.00 | 0.15 | 0.15 | 91 | 1016.5 |
| 20260505100002 | 22 | 0 | 0.0 | 0.0 | 0.00 | 0.15 | 0.15 | 90 | 1016.3 |
| 20260505095502 | 22 | 0 | 0.0 | 0.0 | 0.00 | 0.15 | 0.15 | 90 | 1016.3 |
| 20260505095002 | 22 | 0 | 0.0 | 0.0 | 0.00 | 0.15 | 0.15 | 89 | 1016.4 |
| 20260505094502 | 22 | 0 | 0.0 | 0.0 | 0.00 | 0.15 | 0.15 | 89 | 1016.4 |
| 20260505094003 | 22 | 0 | 0.0 | 0.0 | 0.00 | 0.15 | 0.15 | 89 | 1016.3 |
| 20260505093503 | 22 | 0 | 0.0 | 0.0 | 0.00 | 0.15 | 0.15 | 88 | 1016.3 |
| 20260505093003 | 22 | 0 | 0.0 | 0.0 | 0.00 | 0.15 | 0.15 | 88 | 1016.2 |
| 20260505092502 | 22 | 0 | 0.0 | 0.0 | 0.00 | 0.15 | 0.15 | 88 | 1016.1 |
| 20260505092002 | 22 | 0 | 0.0 | 0.0 | 0.00 | 0.15 | 0.15 | 88 | 1016.1 |
| 20260505091502 | 22 | 0 | 0.0 | 0.0 | 0.00 | 0.20 | 0.15 | 88 | 1016.1 |
| 20260505091002 | 22 | 0 | 0.0 | 0.0 | 0.00 | 0.23 | 0.15 | 88 | 1016.1 |
| 20260505090502 | 22 | 0 | 0.0 | 0.0 | 0.00 | 0.30 | 0.15 | 88 | 1015.8 |
| 20260505090002 | 22 | 0 | 0.0 | 0.0 | 0.05 | 0.33 | 0.15 | 87 | 1015.8 |
| 20260505085523 | 22 | 0 | 0.0 | 0.0 | 0.10 | 0.33 | 0.15 | 87 | 1015.9 |
| 20260505085003 | 22 | 0 | 0.0 | 0.0 | 0.13 | 0.33 | 0.15 | 87 | 1015.5 |
| 20260505084502 | 22 | 0 | 0.0 | 0.0 | 0.13 | 0.36 | 0.15 | 86 | 1015.8 |
| 20260505084003 | 22 | 0 | 0.0 | 0.0 | 0.13 | 0.43 | 0.15 | 86 | 1015.7 |
| 20260505083503 | 23 | 0 | 0.0 | 0.0 | 0.13 | 0.43 | 0.15 | 85 | 1015.4 |
| 20260505083003 | 23 | 0 | 0.0 | 0.0 | 0.13 | 0.46 | 0.15 | 85 | 1015.6 |
| 20260505082503 | 23 | 0 | 0.0 | 0.0 | 0.13 | 0.46 | 0.15 | 84 | 1015.4 |
| 20260505082003 | 23 | 0 | 0.0 | 0.0 | 0.13 | 0.46 | 0.15 | 82 | 1015.4 |
| 20260505081502 | 23 | 0 | 0.0 | 0.0 | 0.13 | 0.46 | 0.15 | 81 | 1015.3 |
| 20260505081003 | 23 | 0 | 0.0 | 0.0 | 0.13 | 0.46 | 0.15 | 81 | 1015.4 |
| 20260505080523 | 23 | 0 | 0.0 | 0.0 | 0.13 | 0.46 | 0.15 | 80 | 1015.2 |
| 20260505080003 | 23 | 0 | 0.0 | 0.0 | 0.05 | 0.46 | 0.10 | 81 | 1015.2 |
| 20260505075503 | 23 | 0 | 0.0 | 0.0 | 0.03 | 0.46 | 0.05 | 80 | 1015.3 |
| 20260505075003 | 23 | 0 | 0.0 | 0.0 | 0.00 | 0.46 | 0.03 | 81 | 1014.9 |
| 20260505074524 | 23 | 0 | 0.0 | 0.0 | 0.00 | 0.46 | 0.03 | 83 | 1014.8 |
| 20260505074003 | 23 | 0 | 0.0 | 0.0 | 0.00 | 0.46 | 0.03 | 80 | 1014.8 |
| 20260505073502 | 24 | 0 | 0.0 | 0.0 | 0.00 | 0.46 | 0.03 | 77 | 1014.8 |
| 20260505073003 | 24 | 0 | 0.0 | 0.0 | 0.00 | 0.46 | 0.03 | 76 | 1014.6 |
| 20260505072503 | 24 | 0 | 0.0 | 0.0 | 0.00 | 0.46 | 0.03 | 76 | 1014.6 |
| 20260505072002 | 24 | 0 | 0.0 | 0.0 | 0.00 | 0.46 | 0.03 | 75 | 1014.5 |
| 20260505071503 | 24 | 0 | 0.0 | 0.0 | 0.00 | 0.46 | 0.03 | 75 | 1014.5 |
| 20260505071003 | 24 | 0 | 0.0 | 0.0 | 0.00 | 0.46 | 0.03 | 76 | 1014.6 |
| 20260505070503 | 24 | 0 | 0.0 | 0.0 | 0.00 | 0.46 | 0.03 | 73 | 1014.4 |
| 20260505070024 | 25 | 0 | 0.0 | 0.0 | 0.00 | 0.46 | 0.03 | 73 | 1014.5 |
| 20260505065503 | 24 | 0 | 0.0 | 0.0 | 0.00 | 0.46 | 0.03 | 73 | 1014.4 |
| 20260505065003 | 25 | 0 | 0.0 | 0.0 | 0.00 | 0.46 | 0.03 | 71 | 1014.1 |
| 20260505064503 | 25 | 0 | 0.0 | 0.0 | 0.00 | 0.46 | 0.03 | 70 | 1014.3 |
| 20260505064003 | 26 | 0 | 0.0 | 0.0 | 0.00 | 0.46 | 0.03 | 64 | 1014.3 |
| 20260505063525 | 26 | 0 | 0.0 | 0.0 | 0.00 | 0.46 | 0.03 | 64 | 1014.4 |
| 20260505063024 | 26 | 0 | 0.0 | 0.0 | 0.00 | 0.46 | 0.03 | 64 | 1014.2 |
| 20260505062524 | 26 | 0 | 0.0 | 0.0 | 0.00 | 0.46 | 0.03 | 64 | 1014.2 |
| 20260505062003 | 27 | 0 | 0.0 | 0.0 | 0.00 | 0.46 | 0.03 | 63 | 1014.2 |
| 20260505061503 | 27 | 0 | 0.0 | 0.0 | 0.00 | 0.46 | 0.03 | 63 | 1014.1 |
| 20260505061003 | 27 | 67 | 0.0 | 3.2 | 0.00 | 0.46 | 0.03 | 62 | 1014.1 |
| 20260505060503 | 26 | 67 | 0.0 | 3.2 | 0.00 | 0.46 | 0.03 | 62 | 1014.1 |
| 20260505060003 | 26 | 0 | 0.0 | 0.0 | 0.00 | 0.46 | 0.03 | 63 | 1013.9 |
| 20260505055503 | 26 | 112 | 0.0 | 3.2 | 0.00 | 0.46 | 0.03 | 64 | 1014.0 |
| 20260505055003 | 26 | 112 | 0.0 | 3.2 | 0.00 | 0.46 | 0.03 | 63 | 1014.1 |
| 20260505054503 | 26 | 112 | 0.0 | 3.2 | 0.00 | 0.46 | 0.03 | 64 | 1014.1 |
| 20260505054003 | 26 | 0 | 0.0 | 0.0 | 0.00 | 0.46 | 0.03 | 65 | 1013.9 |
| 20260505053504 | 26 | 0 | 0.0 | 0.0 | 0.00 | 0.46 | 0.03 | 65 | 1014.0 |
| 20260505053003 | 26 | 90 | 0.0 | 3.2 | 0.00 | 0.46 | 0.03 | 64 | 1013.8 |
| 20260505052503 | 27 | 90 | 0.0 | 3.2 | 0.00 | 0.46 | 0.03 | 64 | 1013.9 |
| 20260505052003 | 27 | 77 | 0.0 | 3.2 | 0.00 | 0.46 | 0.03 | 62 | 1013.7 |
| 20260505051524 | 27 | 80 | 0.0 | 3.2 | 0.00 | 0.46 | 0.03 | 62 | 1013.8 |
| 20260505051024 | 27 | 90 | 0.0 | 3.2 | 0.00 | 0.46 | 0.03 | 60 | 1013.8 |
| 20260505050503 | 27 | 90 | 0.0 | 3.2 | 0.00 | 0.46 | 0.03 | 63 | 1013.8 |
| 20260505041503 | 27 | 0 | 0.0 | 0.0 | 0.00 | 0.46 | 0.03 | 62 | 1014.0 |
| 20260505041003 | 28 | 0 | 0.0 | 0.0 | 0.00 | 0.46 | 0.03 | 64 | 1014.1 |
| 20260505040503 | 27 | 0 | 0.0 | 0.0 | 0.00 | 0.46 | 0.03 | 63 | 1013.8 |
| 20260505040003 | 27 | 0 | 0.0 | 0.0 | 0.00 | 0.46 | 0.03 | 62 | 1013.9 |
| 20260505035503 | 28 | 0 | 0.0 | 0.0 | 0.00 | 0.46 | 0.03 | 62 | 1014.1 |
| 20260505035003 | 27 | 0 | 0.0 | 0.0 | 0.00 | 0.46 | 0.03 | 63 | 1013.8 |
| 20260505034503 | 28 | 0 | 0.0 | 0.0 | 0.00 | 0.46 | 0.03 | 62 | 1014.0 |
| 20260505034003 | 28 | 0 | 0.0 | 0.0 | 0.00 | 0.46 | 0.03 | 60 | 1014.0 |
| 20260505033504 | 28 | 0 | 0.0 | 0.0 | 0.00 | 0.46 | 0.03 | 58 | 1013.9 |
| 20260505033003 | 29 | 0 | 0.0 | 0.0 | 0.00 | 0.46 | 0.03 | 56 | 1013.9 |
| 20260505032524 | 28 | 168 | 0.0 | 3.2 | 0.00 | 0.46 | 0.03 | 58 | 1014.0 |
| 20260505032003 | 28 | 168 | 0.0 | 3.2 | 0.00 | 0.46 | 0.03 | 59 | 1014.0 |
| 20260505031503 | 28 | 0 | 0.0 | 0.0 | 0.00 | 0.46 | 0.03 | 61 | 1014.1 |
| 20260505031003 | 27 | 135 | 0.0 | 3.2 | 0.00 | 0.46 | 0.03 | 59 | 1014.2 |
| 20260505030503 | 28 | 135 | 0.0 | 3.2 | 0.00 | 0.46 | 0.03 | 59 | 1014.4 |
| 20260505030024 | 28 | 0 | 0.0 | 0.0 | 0.00 | 0.46 | 0.03 | 63 | 1014.5 |
| 20260505025503 | 27 | 0 | 0.0 | 0.0 | 0.00 | 0.46 | 0.03 | 62 | 1014.5 |
| 20260505025024 | 27 | 0 | 0.0 | 0.0 | 0.00 | 0.46 | 0.03 | 64 | 1014.6 |
| 20260505024503 | 27 | 0 | 0.0 | 0.0 | 0.00 | 0.46 | 0.03 | 64 | 1014.8 |
| 20260505024003 | 27 | 0 | 0.0 | 0.0 | 0.00 | 0.46 | 0.03 | 66 | 1014.6 |
| 20260505023504 | 28 | 0 | 0.0 | 0.0 | 0.00 | 0.46 | 0.03 | 63 | 1014.8 |
| 20260505023003 | 27 | 0 | 0.0 | 0.0 | 0.00 | 0.46 | 0.03 | 67 | 1015.0 |
| 20260505022503 | 27 | 90 | 0.0 | 3.2 | 0.00 | 0.46 | 0.03 | 68 | 1015.0 |
| 20260505022003 | 28 | 90 | 0.0 | 3.2 | 0.00 | 0.46 | 0.03 | 69 | 1014.9 |
| 20260505021524 | 27 | 0 | 0.0 | 0.0 | 0.00 | 0.46 | 0.03 | 69 | 1015.0 |
| 20260505021003 | 27 | 0 | 0.0 | 0.0 | 0.00 | 0.46 | 0.03 | 67 | 1015.3 |
| 20260505020524 | 27 | 0 | 0.0 | 0.0 | 0.00 | 0.46 | 0.03 | 69 | 1015.3 |
| 20260505020003 | 26 | 0 | 0.0 | 0.0 | 0.00 | 0.46 | 0.03 | 69 | 1015.3 |
| 20260505015503 | 26 | 0 | 0.0 | 0.0 | 0.00 | 0.46 | 0.03 | 69 | 1015.4 |
| 20260505015003 | 26 | 0 | 0.0 | 0.0 | 0.00 | 0.46 | 0.03 | 71 | 1015.2 |
| 20260505014524 | 26 | 0 | 0.0 | 0.0 | 0.00 | 0.46 | 0.03 | 69 | 1015.5 |
| 20260505014003 | 27 | 0 | 0.0 | 0.0 | 0.00 | 0.46 | 0.03 | 72 | 1015.6 |
| 20260505013504 | 27 | 0 | 0.0 | 0.0 | 0.00 | 0.46 | 0.03 | 70 | 1015.5 |
| 20260505013003 | 26 | 0 | 0.0 | 0.0 | 0.00 | 0.46 | 0.03 | 71 | 1015.7 |
| 20260505012503 | 26 | 0 | 0.0 | 0.0 | 0.00 | 0.46 | 0.03 | 74 | 1015.6 |
| 20260505012003 | 27 | 0 | 0.0 | 0.0 | 0.00 | 0.46 | 0.03 | 71 | 1015.8 |
| 20260505011524 | 27 | 0 | 0.0 | 0.0 | 0.00 | 0.46 | 0.03 | 73 | 1015.7 |
| 20260505011003 | 27 | 0 | 0.0 | 0.0 | 0.00 | 0.46 | 0.03 | 73 | 1015.9 |
| 20260505010503 | 27 | 0 | 0.0 | 0.0 | 0.00 | 0.46 | 0.03 | 72 | 1016.0 |
| 20260505010022 | 27 | 0 | 0.0 | 0.0 | 0.00 | 0.46 | 0.03 | 75 | 1016.4 |
| 20260505005500 | 26 | 0 | 0.0 | 0.0 | 0.00 | 0.46 | 0.03 | 75 | 1016.3 |
| 20260505005000 | 26 | 0 | 0.0 | 0.0 | 0.00 | 0.46 | 0.03 | 73 | 1016.4 |
| 20260505004522 | 26 | 0 | 0.0 | 0.0 | 0.00 | 0.46 | 0.03 | 73 | 1016.4 |
| 20260505004000 | 25 | 0 | 0.0 | 0.0 | 0.00 | 0.46 | 0.03 | 77 | 1016.0 |
| 20260505003502 | 25 | 0 | 0.0 | 0.0 | 0.00 | 0.46 | 0.03 | 78 | 1016.1 |
| 20260505003001 | 25 | 0 | 0.0 | 0.0 | 0.00 | 0.46 | 0.03 | 76 | 1016.3 |
| 20260505002501 | 26 | 0 | 0.0 | 0.0 | 0.00 | 0.46 | 0.03 | 78 | 1016.7 |
| 20260505002021 | 26 | 0 | 0.0 | 0.0 | 0.00 | 0.46 | 0.03 | 77 | 1016.6 |
| 20260505001501 | 25 | 0 | 0.0 | 0.0 | 0.00 | 0.46 | 0.03 | 79 | 1016.5 |
| 20260505001000 | 24 | 108 | 0.0 | 3.2 | 0.00 | 0.46 | 0.03 | 84 | 1016.6 |
| 20260505000522 | 25 | 109 | 0.0 | 3.2 | 0.00 | 0.46 | 0.03 | 79 | 1016.5 |
| 20260505000000 | 26 | 112 | 0.0 | 3.2 | 0.00 | 0.46 | 0.03 | 77 | 1016.4 |
| 20260504235500 | 26 | 0 | 0.0 | 0.0 | 0.00 | 0.46 | 0.03 | 81 | 1016.8 |
| 20260504235021 | 26 | 0 | 0.0 | 0.0 | 0.00 | 0.46 | 0.03 | 79 | 1016.8 |
| 20260504234501 | 25 | 0 | 0.0 | 0.0 | 0.00 | 0.46 | 0.03 | 81 | 1016.9 |
| 20260504234000 | 25 | 0 | 0.0 | 0.0 | 0.00 | 0.46 | 0.03 | 82 | 1016.9 |
| 20260504233501 | 25 | 0 | 0.0 | 0.0 | 0.00 | 0.46 | 0.03 | 82 | 1016.9 |
| 20260504233000 | 24 | 0 | 0.0 | 0.0 | 0.00 | 0.46 | 0.03 | 84 | 1017.0 |
| 20260504232500 | 24 | 0 | 0.0 | 0.0 | 0.00 | 0.46 | 0.03 | 85 | 1016.9 |
| 20260504232022 | 24 | 135 | 0.0 | 3.2 | 0.00 | 0.46 | 0.03 | 85 | 1016.8 |
| 20260504231501 | 24 | 135 | 0.0 | 3.2 | 0.00 | 0.46 | 0.03 | 85 | 1017.1 |
| 20260504231001 | 24 | 0 | 0.0 | 0.0 | 0.00 | 0.46 | 0.03 | 86 | 1017.2 |
| 20260504230501 | 23 | 0 | 0.0 | 0.0 | 0.00 | 0.46 | 0.03 | 87 | 1016.9 |
| 20260504230022 | 23 | 0 | 0.0 | 0.0 | 0.00 | 0.46 | 0.03 | 86 | 1017.1 |
| 20260504225501 | 23 | 0 | 0.0 | 0.0 | 0.00 | 0.46 | 0.03 | 87 | 1017.1 |
| 20260504225000 | 23 | 0 | 0.0 | 0.0 | 0.00 | 0.46 | 0.03 | 87 | 1017.0 |
| 20260504224501 | 23 | 0 | 0.0 | 0.0 | 0.00 | 0.46 | 0.03 | 87 | 1017.0 |
| 20260504224001 | 23 | 0 | 0.0 | 0.0 | 0.00 | 0.46 | 0.03 | 88 | 1017.0 |
| 20260504223522 | 23 | 0 | 0.0 | 0.0 | 0.00 | 0.46 | 0.03 | 90 | 1017.1 |
| 20260504223000 | 23 | 0 | 0.0 | 0.0 | 0.00 | 0.46 | 0.03 | 91 | 1017.0 |
| 20260504222501 | 22 | 0 | 0.0 | 0.0 | 0.00 | 0.46 | 0.03 | 91 | 1017.1 |
| 20260504222001 | 22 | 0 | 0.0 | 0.0 | 0.00 | 0.46 | 0.03 | 91 | 1017.1 |
| 20260504221501 | 23 | 0 | 0.0 | 0.0 | 0.00 | 0.46 | 0.03 | 92 | 1016.8 |
| 20260504221001 | 22 | 0 | 0.0 | 0.0 | 0.00 | 0.46 | 0.03 | 98 | 1017.2 |
| 20260504220501 | 21 | 0 | 0.0 | 0.0 | 0.00 | 0.46 | 0.03 | 99 | 1017.0 |
| 20260504220022 | 21 | 0 | 0.0 | 0.0 | 0.00 | 0.46 | 0.03 | 99 | 1017.0 |
| 20260504215522 | 21 | 0 | 0.0 | 0.0 | 0.00 | 0.46 | 0.03 | 99 | 1017.0 |
| 20260504215001 | 20 | 0 | 0.0 | 0.0 | 0.00 | 0.46 | 0.03 | 99 | 1017.0 |
| 20260504214522 | 20 | 0 | 0.0 | 0.0 | 0.00 | 0.46 | 0.03 | 99 | 1017.1 |
| 20260504214001 | 20 | 0 | 0.0 | 0.0 | 0.00 | 0.46 | 0.03 | 99 | 1017.0 |
| 20260504213502 | 20 | 0 | 0.0 | 0.0 | 0.00 | 0.46 | 0.03 | 99 | 1016.9 |
| 20260504213001 | 20 | 0 | 0.0 | 0.0 | 0.00 | 0.46 | 0.03 | 99 | 1017.0 |
| 20260504212522 | 20 | 0 | 0.0 | 0.0 | 0.00 | 0.46 | 0.03 | 99 | 1017.1 |
| 20260504212022 | 20 | 0 | 0.0 | 0.0 | 0.00 | 0.46 | 0.03 | 99 | 1016.8 |
| 20260504211522 | 19 | 0 | 0.0 | 0.0 | 0.00 | 0.46 | 0.03 | 99 | 1016.6 |
| 20260504211022 | 19 | 0 | 0.0 | 0.0 | 0.00 | 0.46 | 0.03 | 99 | 1016.7 |
| 20260504210522 | 19 | 0 | 0.0 | 0.0 | 0.00 | 0.46 | 0.03 | 99 | 1016.6 |
| 20260504210001 | 19 | 0 | 0.0 | 0.0 | 0.00 | 0.46 | 0.03 | 99 | 1016.6 |
| 20260504205501 | 19 | 0 | 0.0 | 0.0 | 0.00 | 0.46 | 0.03 | 99 | 1016.5 |
| 20260504205001 | 19 | 0 | 0.0 | 0.0 | 0.00 | 0.46 | 0.03 | 99 | 1016.2 |
| 20260504204501 | 18 | 0 | 0.0 | 0.0 | 0.00 | 0.46 | 0.03 | 99 | 1016.5 |
| 20260504204001 | 18 | 0 | 0.0 | 0.0 | 0.00 | 0.46 | 0.03 | 99 | 1016.2 |
| 20260504203523 | 17 | 0 | 0.0 | 0.0 | 0.00 | 0.46 | 0.03 | 99 | 1015.9 |
| 20260504203001 | 17 | 0 | 0.0 | 0.0 | 0.00 | 0.46 | 0.03 | 99 | 1016.0 |
| 20260504202501 | 17 | 0 | 0.0 | 0.0 | 0.00 | 0.46 | 0.03 | 99 | 1016.1 |
| 20260504202001 | 17 | 0 | 0.0 | 0.0 | 0.00 | 0.46 | 0.03 | 99 | 1015.9 |
| 20260504201522 | 17 | 0 | 0.0 | 0.0 | 0.00 | 0.46 | 0.03 | 99 | 1015.7 |
| 20260504201001 | 17 | 0 | 0.0 | 0.0 | 0.00 | 0.46 | 0.03 | 99 | 1015.8 |
| 20260504200501 | 17 | 0 | 0.0 | 0.0 | 0.00 | 0.46 | 0.03 | 99 | 1015.9 |
| 20260504200001 | 17 | 0 | 0.0 | 0.0 | 0.00 | 0.46 | 0.03 | 99 | 1015.8 |
| 20260504195501 | 17 | 0 | 0.0 | 0.0 | 0.00 | 0.46 | 0.03 | 99 | 1015.8 |
| 20260504195001 | 17 | 0 | 0.0 | 0.0 | 0.00 | 0.46 | 0.03 | 99 | 1015.7 |
| 20260504194501 | 17 | 0 | 0.0 | 0.0 | 0.00 | 0.46 | 0.03 | 99 | 1015.7 |
| 20260504194001 | 17 | 0 | 0.0 | 0.0 | 0.00 | 0.46 | 0.03 | 99 | 1015.7 |
| 20260504193502 | 17 | 0 | 0.0 | 0.0 | 0.00 | 0.46 | 0.03 | 99 | 1015.8 |
| 20260504193001 | 18 | 0 | 0.0 | 0.0 | 0.00 | 0.46 | 0.03 | 99 | 1015.7 |
| 20260504192501 | 18 | 0 | 0.0 | 0.0 | 0.00 | 0.46 | 0.03 | 99 | 1015.6 |
| 20260504192001 | 18 | 0 | 0.0 | 0.0 | 0.00 | 0.46 | 0.03 | 99 | 1015.6 |
| 20260504191501 | 18 | 0 | 0.0 | 0.0 | 0.00 | 0.46 | 0.03 | 99 | 1015.6 |
| 20260504191001 | 18 | 0 | 0.0 | 0.0 | 0.00 | 0.46 | 0.03 | 99 | 1015.6 |
| 20260504190501 | 18 | 0 | 0.0 | 0.0 | 0.00 | 0.46 | 0.03 | 99 | 1015.6 |
| 20260504190001 | 18 | 0 | 0.0 | 0.0 | 0.00 | 0.46 | 0.03 | 99 | 1015.4 |
| 20260504185501 | 18 | 0 | 0.0 | 0.0 | 0.00 | 0.46 | 0.03 | 99 | 1015.3 |
| 20260504185001 | 18 | 0 | 0.0 | 0.0 | 0.00 | 0.46 | 0.03 | 99 | 1015.1 |
| 20260504184501 | 18 | 0 | 0.0 | 0.0 | 0.00 | 0.46 | 0.03 | 99 | 1015.3 |
| 20260504184002 | 17 | 0 | 0.0 | 0.0 | 0.00 | 0.46 | 0.03 | 99 | 1015.2 |
| 20260504183502 | 17 | 0 | 0.0 | 0.0 | 0.00 | 0.46 | 0.03 | 99 | 1015.0 |
| 20260504183022 | 17 | 0 | 0.0 | 0.0 | 0.00 | 0.46 | 0.03 | 99 | 1014.8 |
| 20260504182501 | 17 | 0 | 0.0 | 0.0 | 0.00 | 0.46 | 0.03 | 99 | 1014.9 |
| 20260504182022 | 17 | 0 | 0.0 | 0.0 | 0.00 | 0.46 | 0.03 | 99 | 1015.0 |
| 20260504181501 | 17 | 0 | 0.0 | 0.0 | 0.00 | 0.46 | 0.03 | 99 | 1015.1 |
| 20260504181001 | 18 | 0 | 0.0 | 0.0 | 0.00 | 0.46 | 0.03 | 99 | 1015.1 |
| 20260504180522 | 18 | 0 | 0.0 | 0.0 | 0.00 | 0.46 | 0.03 | 99 | 1015.2 |
| 20260504180001 | 18 | 0 | 0.0 | 0.0 | 0.00 | 0.46 | 0.03 | 99 | 1014.9 |
| 20260504175501 | 18 | 0 | 0.0 | 0.0 | 0.03 | 0.46 | 0.03 | 99 | 1015.1 |
| 20260504175001 | 18 | 0 | 0.0 | 0.0 | 0.03 | 0.46 | 0.03 | 99 | 1015.1 |
| 20260504174501 | 17 | 0 | 0.0 | 0.0 | 0.03 | 0.46 | 0.03 | 99 | 1015.1 |
| 20260504174002 | 18 | 0 | 0.0 | 0.0 | 0.03 | 0.46 | 0.03 | 99 | 1015.2 |
| 20260504173523 | 18 | 0 | 0.0 | 0.0 | 0.03 | 0.46 | 0.03 | 99 | 1015.0 |
| 20260504173002 | 17 | 0 | 0.0 | 0.0 | 0.03 | 0.46 | 0.03 | 99 | 1015.2 |
| 20260504172501 | 17 | 0 | 0.0 | 0.0 | 0.03 | 0.46 | 0.03 | 99 | 1015.2 |
| 20260504172002 | 17 | 0 | 0.0 | 0.0 | 0.03 | 0.46 | 0.03 | 99 | 1015.2 |
| 20260504171501 | 18 | 0 | 0.0 | 0.0 | 0.03 | 0.46 | 0.03 | 99 | 1015.2 |
| 20260504171023 | 17 | 0 | 0.0 | 0.0 | 0.03 | 0.46 | 0.03 | 99 | 1015.3 |
| 20260504170523 | 17 | 0 | 0.0 | 0.0 | 0.03 | 0.46 | 0.03 | 99 | 1015.2 |
| 20260504151002 | 18 | 0 | 0.0 | 0.0 | 0.00 | 0.48 | 0.00 | 99 | 1016.0 |
| 20260504150501 | 18 | 0 | 0.0 | 0.0 | 0.00 | 0.48 | 0.00 | 99 | 1016.0 |
| 20260504141023 | 18 | 0 | 0.0 | 0.0 | 0.00 | 0.48 | 0.00 | 99 | 1016.2 |
| 20260504140502 | 18 | 0 | 0.0 | 0.0 | 0.00 | 0.48 | 0.00 | 99 | 1016.2 |